Northeast Philadelphia, PA

7:01 PM EDT on April 23, 2017 (GMT -0400)
Northeast Philadelphia

Weather History for KPNE - November, 2013

Change the Weather History Date:

Sunday, November 24, 2013

  Actual Average Record
Temperature  
Mean Temperature 27 °F -  
Max Temperature 30 °F 50 °F 72 °F (2014)
Min Temperature 24 °F 34 °F 21 °F (2000)
Degree Days  
Heating Degree Days 38    
Moisture  
Dew Point 1 °F    
Average Humidity 34    
Maximum Humidity 45    
Minimum Humidity 26    
Precipitation  
Precipitation 0.00 in - - ()
Sea Level Pressure  
Sea Level Pressure 30.30 in    
Wind  
Wind Speed 16 mph (NW)    
Max Wind Speed 25 mph    
Max Gust Speed 40 mph    
Visibility 10 miles    
Events      
Averages and records for this station are not official NWS values.
T = Trace of Precipitation, MM = Missing Value Source: NWS Daily Summary

Daily Weather History Graph

Daily Weather History Graph

Search for Another Location

Airport or City:

Trip Planner

Search our weather history database for the weather conditions in past years. The results will help you decide how hot, cold, wet, or windy it might be!

Date:

Astronomy

Nov. 24, 2013 Rise Set
Actual Time 6:55 AM EST 4:37 PM EST
Civil Twilight 6:26 AM EST 5:07 PM EST
Nautical Twilight 5:52 AM EST 5:40 PM EST
Astronomical Twilight 5:20 AM EST 6:12 PM EST
Moon 11:01 PM EST (11/24) 11:42 AM EST (11/24)
Length of Visible Light 10h 41m
Length of Day
9h 41m
Waning Gibbous, 61% of the Moon is Illuminated
Nov 24
Waning Gibbous
Nov 25
Last Quarter
Dec 2
New
Dec 9
First Quarter
Dec 17
Full

Hourly Weather History & Observations

Time (EST) Temp. Windchill Dew Point Humidity Pressure Visibility Wind Dir Wind Speed Gust Speed Precip Events Conditions
12:54 AM 28.9 °F 17.7 °F 10.0 °F 45% 30.12 in 10.0 mi WNW 15.0 mph 25.3 mph N/A   Clear
1:54 AM 28.0 °F 14.6 °F 5.0 °F 38% 30.15 in 10.0 mi NW 20.7 mph 32.2 mph N/A   Partly Cloudy
2:54 AM 26.1 °F 16.8 °F 5.0 °F 41% 30.16 in 10.0 mi WNW 9.2 mph - N/A   Clear
3:54 AM 26.1 °F 12.3 °F 3.0 °F 37% 30.16 in 10.0 mi NW 19.6 mph 27.6 mph N/A   Clear
4:54 AM 25.0 °F 10.6 °F 3.9 °F 41% 30.17 in 10.0 mi NW 20.7 mph 28.8 mph N/A   Partly Cloudy
5:54 AM 25.0 °F 10.2 °F 1.9 °F 37% 30.19 in 10.0 mi NW 21.9 mph 31.1 mph N/A   Clear
6:54 AM 24.1 °F 11.5 °F 1.0 °F 37% 30.22 in 10.0 mi NW 15.0 mph 32.2 mph N/A   Clear
7:54 AM 25.0 °F 11.7 °F 1.0 °F 36% 30.25 in 10.0 mi WNW 17.3 mph 23.0 mph N/A   Clear
8:54 AM 26.1 °F 13.1 °F 1.0 °F 34% 30.26 in 10.0 mi NW 17.3 mph 39.1 mph N/A   Clear
9:54 AM 27.0 °F 12.2 °F 1.0 °F 33% 30.28 in 10.0 mi NW 24.2 mph 40.3 mph N/A   Clear
10:54 AM 28.9 °F 15.4 °F -0.0 °F 29% 30.28 in 10.0 mi NW 21.9 mph 32.2 mph N/A   Clear
11:54 AM 30.0 °F 16.0 °F -0.0 °F 28% 30.28 in 10.0 mi NW 25.3 mph 35.7 mph N/A   Scattered Clouds
12:54 PM 30.9 °F 18.1 °F -0.9 °F 26% 30.29 in 10.0 mi WNW 21.9 mph 31.1 mph N/A   Scattered Clouds
1:54 PM 30.9 °F 17.2 °F -0.9 °F 26% 30.30 in 10.0 mi NNW 25.3 mph 33.4 mph N/A   Clear
2:54 PM 30.9 °F 18.1 °F -0.9 °F 26% 30.32 in 10.0 mi NNW 21.9 mph 29.9 mph N/A   Clear
3:54 PM 30.0 °F 19.5 °F -0.9 °F 27% 30.34 in 10.0 mi NW 13.8 mph 20.7 mph N/A   Partly Cloudy
4:54 PM 28.9 °F 16.9 °F -2.0 °F 26% 30.36 in 10.0 mi NNW 17.3 mph 25.3 mph N/A   Clear
5:54 PM 28.0 °F 19.3 °F -0.9 °F 29% 30.40 in 10.0 mi NW 9.2 mph - N/A   Clear
6:54 PM 27.0 °F 18.0 °F -0.9 °F 30% 30.42 in 10.0 mi WNW 9.2 mph - N/A   Clear
7:54 PM 25.0 °F 17.1 °F -0.0 °F 34% 30.43 in 8.0 mi West 6.9 mph - N/A   Clear
8:54 PM 24.1 °F 16.0 °F 1.0 °F 37% 30.44 in 10.0 mi West 6.9 mph - N/A   Clear
9:54 PM 26.1 °F 18.4 °F 1.0 °F 34% 30.44 in 10.0 mi WNW 6.9 mph 17.3 mph N/A   Clear
10:54 PM 25.0 °F 18.1 °F 3.0 °F 39% 30.45 in 10.0 mi WNW 5.8 mph - N/A   Clear
11:54 PM 25.0 °F 20.7 °F 3.9 °F 41% 30.47 in 10.0 mi WNW 3.5 mph - N/A   Clear